Regional Weather Roundup
Issued by NWS

Home | Current Version | Previous Version | Text Only | Print | Product List | Glossary On
Versions: 1 2 3 4 5 6 7 8 9 10 11 12 13 14 15 16 17 18 19 20 21 22 23 24 25 26 27 28 29 30 31 32 33 34 35 36 37 38 39 40 41 42 43 44 45 46 47 48 49 50
000
ASUS45 KTFX 071210
RWRMT
MONTANA REGIONAL WEATHER ROUNDUP
NATIONAL WEATHER SERVICE GREAT FALLS MT
600 AM MDT TUE JUL 07 2015

NOTE: "FAIR" INDICATES FEW OR NO CLOUDS BELOW 12000 FEET WITH NO
SIGNIFICANT WEATHER AND/OR OBSTRUCTIONS TO VISIBILITY.

MTZ001>007-043-071300-
WEST OF THE DIVIDE

CITY           SKY/WX    TMP DP  RH WIND       PRES   REMARKS
KALISPELL      CLOUDY    67  46  47 NE17G24   30.02F
MISSOULA       PTCLDY    56  38  50 SE7       30.06R
BUTTE          CLOUDY    46  32  58 SE5       30.18S
MULLAN PASS    PTCLDY    62  36  37 S5        30.15F
DEER LODGE       N/A     46  36  66 CALM      30.16S
EUREKA           N/A     63  45  51 CALM      30.05R
HAMILTON         N/A     59  41  51 S10       30.06S
LIBBY            N/A     61  45  55 CALM      30.02R
PLAINS           N/A     60  46  59 CALM      30.01R
RONAN            N/A     62  53  72 N9        30.08R
$$

MTZ008-052>055-071300-
SOUTHWEST MONTANA

CITY           SKY/WX    TMP DP  RH WIND       PRES   REMARKS
BOZEMAN        CLEAR     50  47  89 CALM      30.13R
DILLON         CLEAR     49  45  86 SW7       30.15R
W YELLOWSTONE  PTCLDY    48  48 100 CALM      30.24R
THREE FORKS      N/A     49  49 100 CALM      30.10S
$$

MTZ009-010-012-014-046-048-049-054-071300-
EAST SLOPES AND CENTRAL MONTANA

CITY           SKY/WX    TMP DP  RH WIND       PRES   REMARKS
CUT BANK       MOCLDY    54  49  83 N20       30.11R
GREAT FALLS    CLEAR     50  48  93 W10       30.07R
MALMSTROM AFB  CLEAR     55  50  84 W3        30.07R
HELENA         PTCLDY    56  48  74 CALM      30.09S
CONRAD           N/A     55  55 100 W9        30.11R
$$

MTZ011-013-016-021-045-047-050-051-071300-
NORTH CENTRAL MONTANA

CITY           SKY/WX    TMP DP  RH WIND       PRES   REMARKS
HAVRE          MOCLDY    53  50  89 CALM      30.05R
LEWISTOWN      CLEAR     48  43  82 SE6       30.09S
CHINOOK          N/A     52  48  87 CALM      30.06R
FORT BENTON      N/A     52  48  87 W3        30.08R
$$

MTZ017>020-022>027-061-062-071300-
NORTHEAST MONTANA

CITY           SKY/WX    TMP DP  RH WIND       PRES   REMARKS
GLASGOW        MOCLDY    56  49  77 E12       30.06S HAZE
JORDAN           N/A     50  45  83 CALM      30.07S
SIDNEY         CLOUDY    55  52  88 CALM      30.13S
WOLF POINT     PTCLDY    56  52  86 E5        30.09S FOG
MALTA            N/A     57  48  72 CALM      30.02S
PLENTYWOOD       N/A     52  50  93 E5        30.11F
POPLAR           N/A     54  52  94 NE3       30.10S
SCOBEY           N/A     51  45  80 SE1       30.08F
$$

MTZ028>42-056>058-071300-
SOUTHCENTRAL AND SOUTHEAST MONTANA

CITY           SKY/WX    TMP DP  RH WIND       PRES   REMARKS
BAKER          PTCLDY    53  50  89 SE7       30.14F FOG
BILLINGS       PTCLDY    55  52  89 S3        30.10S
LIVINGSTON     CLEAR     48  45  89 NW5       30.13S
MILES CITY     CLEAR     54  47  77 NE3       30.07F
EKALAKA          N/A     54  49  83 SE5       30.09F
FORSYTH          N/A     52  52 100 CALM      30.07S
LAUREL           N/A     52  45  77 CALM      30.07S
ROUNDUP          N/A     51  44  77 CALM      29.99F
$$

REGIONAL REPORTS...DAKOTAS

CITY           SKY/WX    TMP DP  RH WIND       PRES   REMARKS
WILLISTON      PTCLDY    56  51  84 CALM      30.14S HAZE
MINOT          CLEAR     53  47  79 SW5       30.15S
DICKINSON      CLOUDY    52  49  89 SE8       30.14F FOG
BEACH          CLOUDY    54  54 100 SE9       30.14F FOG
CROSBY         FAIR      52  52 100 S10       30.13S FOG
BISMARCK       CLEAR     48  46  93 CALM      30.20S
GRAND FORKS    SUNNY     48  46  93 W3        30.17S
FARGO          SUNNY     48  45  89 CALM      30.19S
BUFFALO SD       N/A     53  50  89 E7        30.08F
RAPID CITY     CLEAR     56  54  93 S6        30.16F FOG
$$

REGIONAL REPORTS...WYOMING/IDAHO/WASHINGTON

CITY           SKY/WX    TMP DP  RH WIND       PRES   REMARKS
GILLETTE       CLEAR     54  52  93 S13       30.13F FOG
SHERIDAN       CLEAR     49  47  93 CALM      30.10S FOG
BUFFALO WY     CLEAR     53  45  74 SW3       30.14S
CODY           CLOUDY    57  52  82 S6        30.14S
YELLOWSTONE LA   N/A     47  45  93 CALM      30.33R
IDAHO FALLS    PTCLDY    58  54  86 NE3       30.12R
SALMON         CLEAR     54  43  66 CALM      30.11S
BOISE          MOCLDY    74  48  39 SE8       29.98R
SPOKANE        MOCLDY    70  47  43 SE6       29.94R
$$

REGIONAL REPORTS...ALBERTA

CITY           SKY/WX    TMP DP  RH WIND       PRES   REMARKS
EDMONTON       PTCLDY    46  39  76 N3        30.16R
CALGARY        MOCLDY    55  46  71 N13G20    30.15R
LETHBRIDGE     MOCLDY    54  52  94 SW8       30.13R
MEDICINE HAT   PTCLDY    57  52  82 CALM      30.06S
WATERTON GATE    N/A     54  48  82 SW5         N/A
$$

REGIONAL REPORTS...SASKATCHEWAN

CITY           SKY/WX    TMP DP  RH WIND       PRES   REMARKS
SWIFT CURRENT  MOCLDY    54  45  71 SW10      30.04S
REGINA         MOCLDY    50  45  81 SE7       30.07F
SASKATOON      MOCLDY    54  48  82 SW8       29.99F
CYPRESS HILLS    N/A     52  43  71 NW2         N/A
VAL MARIE        N/A     46  45  93 NE2         N/A
$$



USA.gov is the U.S. government's official web portal to all federal, state and local government web resources and services.